Погода Викулово

Погода Викулово : погода сейчас, прогноз погоды и архив. Всё, что Вы хотите узнать о погоде Викулово!

Поиск расширенной информации на нашем сайте:

Другие новости

Новости СМИ2

Главная страница сайта

Новости сайта

03.07.2017

Напоминаем, что на нашем специализированном сайте Метеоцентр.Азия вы можете получить высокодетализированные автоматические прогнозы погоды по пунктам России, СНГ и мира в авиационном формате (включающие направление и скорость ветра, видимость, явления погоды, количество и форму облачности, нижнюю и верхнюю границу облачности).


Погода Викулово - сегодня

Время (UTC), дата Ветер
(°,м/с) 
Видим.   Явления Облачность Т
(°С)
Тd
(°С)
f(%) Тe
(°С)
Pmin
(гПа)
dP
(гПа)
Po
(мм)
O2
(г/м3)
Тmin Tmax R s Состояние
почвы
03 18.05.18 330 (СЗ) 5{12}  10 км  слаб. дождь  10/0 средняя 
[As op]
+2.7 -0.1 82 1008.1  2.9  749  299  +2.7    0.1    влажная 
15 18.05.18 350 (С) 7-11{14}  20000 м    1/1 600 м 
[Cu hum]
+2.8 -10.6 37 -1  1019.9  2.8  758  303    +4.5     
18 18.05.18 330 (СЗ) 4{11}  10 км    ясно 
+0.7 -10.1 44 -2  1022.6  2.6  760  306           
21 18.05.18 310 (СЗ) 10 км    ясно 
-1.7 -9.7 54 -3  1024.1  1.3  761  309           
00 19.05.18 320 (СЗ) 10 км    ясно 
-1.7 -9.6 55 -3  1026  1.9  762  310           
03 19.05.18 330 (СЗ) 20000 м    1/0 верхняя 
[Ci fib]
+2.2 -12.2 34 +2  1027.6  1.7  763  306  -2.7        влажная 
06 19.05.18 200 (Ю) 20000 м    ясно 
+6.9 -13.1 22 +7  1027.1  -0.3  763  301           
09 19.05.18 240 (ЮЗ) 20000 м    ясно 
+11 -13.9 16 +10  1026  -1  762  296           
12 19.05.18 210 (ЮЗ) 20000 м    4/0 верхняя 
[Ci sp]
+13.1 -13.9 14 +13  1024.4  -1.5  761  294           
15 19.05.18 210 (ЮЗ) 20000 м    8/0 средняя, верхняя 
[Ac trans|Ci fib]
+10.8 -12.9 18 +11  1023.4  -1  761  296    +13.6       
18 19.05.18 170 (Ю) 20000 м    3/0 средняя, верхняя 
[Ac trans|Ci sp]
+6.1 -9.7 31 +6  1022.8  -0.8  760  300           
21 19.05.18 170 (Ю) 4000 м  слаб. дождь  10/10 600 м 
[Sc]
+5.9 -0.3 64 +5  1021.7  -1.1  759  299           
00 20.05.18 160 (Ю) 20000 м  {дождь}  10/0 средняя 
[Ac und]
+7.5 -1.3 54 +5  1018.2  -3.4  757  297           
03 20.05.18 170 (Ю) 5{12}  20000 м    10/0 средняя 
[Ac und]
+9.5 -0.6 49 +8  1015.9  -2.2  755  294  +5.3    0.6    влажная 
06 20.05.18 170 (Ю) 20000 м  {дождь}  9/0 средняя 
[Ac As]
+13.7 +1.5 43 +13  1013.4  -2.3  753  289           
09 20.05.18 190 (Ю) 5{11}  20000 м    8/0 верхняя 
[Ci fib]
+21.9 +1.4 26 +22  1011.3  -1.8  752  280           
12 20.05.18 200 (Ю) 4{11}  20000 м    8/4 600 м кучево-дожд., верхняя 
[Cb calv|Ci fib]
+25.6 +3.8 24 +26  1008.6  -2.6  750  276           
15 20.05.18 190 (Ю) 1{13}  4000 м  дым{ливн. осадки}  8/5 600 м кучево-дожд., верхняя 
[Cb calv|Ci sp]
+21.7 +6.9 38 +22  1007  -1.7  749  278    +26.4  0.0     
21 20.05.18 220 (ЮЗ) 10 км    9/9 600 м 
[Sc]
+15.8 +8.3 61 +17  1006.9  -1  748  284           
00 21.05.18 230 (ЮЗ) 10 км    8/0 средняя 
[Ac As]
+15.3 +8 62 +16  1007.4  0.4  749  284           
03 21.05.18 270 (З) 20000 м    8/0 средняя 
[Ac As]
+18.6 +8.7 52 +19  1008.7  1.3  750  281  +14.9       
09 21.05.18 320 (СЗ) 5{12}  20000 м    9/0 средняя 
[Ac As]
+15.2 +7.6 60 +15  1013.5  2.9  753  286           
15 21.05.18 350 (С) 3{12}  20000 м    9/9 600 м 
[Sc]
+11.7 +2.6 54 +11  1016.3  1.4  755  291    +20.3       
18 21.05.18 350 (С) 20000 м    10/10 600 м 
[Sc]
+9.1 +3 66 +8  1017  0.7  756  294           
21 21.05.18 350 (С) 20000 м    10/10 600 м 
[Sc]
+7.6 +2.4 70 +7  1017.2  0.1  756  296           
Время (UTC), дата Ветер
(°,м/с) 
Видим.   Явления Облачность Т
(°С)
Тd
(°С)
f(%) Тe
(°С)
Pmin
(гПа)
dP
(гПа)
Po
(мм)
O2
(г/м3)
Тmin Tmax R s Состояние
почвы

Для получения пояснительной информации подведите курсор к названию столбца.

ПОГОДА Викулово - архив

Всё, что Вы хотите узнать о погоде Викулово - удобно и подробно!

Выберите нужную дату (начиная с 1 января 2015* года) и нажмите кнопку "Найти".
Будут отображены архивные сводки погоды по пункту Викулово, начиная с указанной даты.


Отображать данные в формате CSV (для использования в таблицах Excel)


Внимание! Наш архив погоды предназначен исключительно для личного некоммерческого использования в познавательных целях. Если Вам необходимы официальные справки о состоянии погоды (для производственных, юридических, коммерческих и т.п. целей), обращайтесь в органы Росгидромета.

*Примечание: данная дата относится к архиву по метеостанциям СССР (Россия, СНГ, Балтия).
Архив по метеостанциям Зарубежной Европы и Азии (кроме Китая) хранится 10 дней, по другим регионам земного шара (Китай, Африка, Америка, Австралия, Океания) - 1 день.

Викулово - район местоположения метеостанции


Название, широта, долгота, высота метеостанции:
Викулово 56.8°ш. 70.6°д. 78 м над ур. моря [Российская Федерация]

Дополнительная информация

В oтличие oт бoльшинства пoгoдных сайтoв мы публикуем пoдрoбную метеoинфoрмацию в детальнoм прoфессиoнальнoм фoрмате.

Характеристики температуры и влажнoсти вoздуха измеряются на высoте 2 м в тени вдали oт зданий и деревьев.
Скoрoсть ветра измеряется на высoте 10 м (на урoвне рoста челoвека скoрoсть ветра ниже в 1.5-2 раза). Если метеoстанция нахoдится в гoрoде или в лесу, тo скoрoсть ветра занижена на 2-4 м/с пo сравнению с oткрытым местoм. Скoрoсть ветра над акватoриями крупных рек и oзёр, а также на вершинах хoлмoв на 2-5 м/с выше, чем в oбычных услoвиях.
Атмoсфернoе давление в разных тoчках местнoсти мoжет значительнo oтличаться oт давления на метеoстанции, в зависимoсти oт услoвий рельефа (при пoдъёме на 10 м давление пoнижается примернo на 1 мм рт.ст.).